Home > Weather > Markham > Past weeks

Flag for Canada Past Weather in Markham, Ontario, Canada — Yesterday and Last 2 Weeks

Now
79 °F

Broken clouds.


Feels Like: 80 °F
Forecast: 68 / 82 °F
Wind: 7 mph from Northeast

Location: Toronto Buttonville

Current Time: Jul 28, 2016 at 10:12:23 PM

Latest Report: Jul 28, 2016 at 9:00 PM


Visibility: 15 mi

Pressure: 29.90 "Hg

Humidity: 54%

Dew Point: 61 °F

Location of MarkhamLocation

Past Weather in Markham — Graph

°F

Markham Temperature Yesterday

Maximum temperature yesterday: 90 °F (at 3:00 PM)
Minimum temperature yesterday: 63 °F (at 4:00 AM)
Average temperature yesterday: 75 °F

High & Low Weather Summary for the Past Weeks

 TemperatureHumidityPressure
High93 °F (Jul 22, 3:00 PM)94% (Jul 14, 2:00 AM)30.28 "Hg (Jul 14, 2:00 AM)
Low55 °F (Jul 17, 4:00 AM)24% (Jul 22, 5:45 PM)29.71 "Hg (Jul 14, 6:00 PM)
Average75 °F61%29.96 "Hg
* Reported Jul 13 9:00 PM — Jul 28 9:00 PM, Markham, Weather by CustomWeather, © 2016

Note: Actual official high and low records may vary slightly from our data, if they occured in-between our weather recording intervals... More about our weather records

Advertising

Markham Weather History for the Previous 24 Hours

Scroll right to see more
 ConditionsComfort  
Time TempWeatherWind HumidityBarometerVisibility
9:00 PM
Thu, Jul 28
79 °FBroken clouds.7 mph54%29.90 "Hg15 mi
8:00 PM79 °FPartly sunny.7 mph54%29.90 "Hg15 mi
7:00 PM81 °FMore clouds than sun.8 mph54%29.88 "Hg15 mi
6:00 PM82 °FCloudy.6 mph51%29.88 "Hg15 mi
5:00 PM82 °FBroken clouds.8 mph51%29.87 "Hg15 mi
4:00 PM82 °FBroken clouds.2 mph55%29.88 "Hg15 mi
3:00 PM82 °FPartly sunny.3 mph51%29.89 "Hg15 mi
2:00 PM82 °FPartly sunny.3 mph51%29.91 "Hg15 mi
1:00 PM82 °FPartly sunny.8 mph51%29.92 "Hg15 mi
12:00 PM81 °FPartly sunny.3 mph58%29.92 "Hg15 mi
11:00 AM79 °FBroken clouds.3 mph65%29.93 "Hg15 mi
10:00 AM75 °FPartly sunny.5 mph69%29.94 "Hg15 mi
9:00 AM73 °FBroken clouds.9 mph74%29.94 "Hg15 mi
8:00 AM72 °FBroken clouds.7 mph78%29.93 "Hg13 mi
7:00 AM70 °FPartly cloudy.6 mph83%29.93 "Hg12 mi
6:00 AM68 °FPassing clouds.2 mph88%29.92 "Hg12 mi
5:00 AM68 °FPassing clouds.5 mph88%29.91 "Hg15 mi
4:00 AM72 °FOvercast.2 mph83%29.90 "Hg15 mi
3:00 AM70 °FPassing clouds.3 mph88%29.90 "Hg15 mi
2:00 AM72 °FPassing clouds.3 mph83%29.91 "Hg15 mi
1:00 AM72 °FPassing clouds.No wind78%29.91 "Hg15 mi
12:00 AM72 °FPassing clouds.2 mph78%29.92 "Hg15 mi
11:00 PM
Wed, Jul 27
72 °FPassing clouds.3 mph88%29.92 "Hg15 mi
10:00 PM73 °FPassing clouds.2 mph83%29.92 "Hg15 mi
Weather by CustomWeather, © 2016

See weather overviewHow to use our weather pages